Torna al catalogo

NOAA 2

ITOS-D

AttivoMeteoSSO
NORAD 6235·PAYLOAD·🇺🇸 United States

Lanciato Oct 15, 1972 da Vandenberg Space Force Base

Loading…

Prossimi Passaggi (prossime 24 ore)

TLE

AggiornatoSource: Space-Track

Epoca: Sep 14, 2026, 13:18 UTC

1 06235U 72082A   26257.55433236 -.00000041  00000-0  37206-4 0  9996
2 06235 102.0072 277.1012 0004124   5.9018 162.0194 12.53217781466145

Traccia NOAA 2 in tempo reale con AllMySat

Download on the App Store